| time (UTC) | temp F | wind direction | speed MPH | gust MPH | rain 1hr in | rain 24hr in | rain mn in | humidity % | barometer mb |
| 20260505041559 | 65 | 177 | 4.0 | 9.0 | 0.00 | 0.00 | 0.00 | 46 | 1010.6 |
| 20260505040055 | 65 | 233 | 5.0 | 12.0 | 0.00 | 0.00 | 0.00 | 46 | 1010.6 |
| 20260505034551 | 65 | 216 | 5.0 | 10.0 | 0.00 | 0.00 | 0.00 | 46 | 1010.6 |
| 20260505033053 | 65 | 215 | 5.0 | 12.0 | 0.00 | 0.00 | 0.00 | 45 | 1010.7 |
| 20260505031605 | 66 | 226 | 7.0 | 13.0 | 0.00 | 0.00 | 0.00 | 45 | 1010.7 |
| 20260505030051 | 66 | 211 | 7.0 | 12.0 | 0.00 | 0.00 | 0.00 | 44 | 1010.7 |
| 20260505024549 | 66 | 217 | 6.0 | 16.0 | 0.00 | 0.00 | 0.00 | 44 | 1010.8 |
| 20260505023102 | 67 | 240 | 8.0 | 16.0 | 0.00 | 0.00 | 0.00 | 43 | 1010.9 |
| 20260505021548 | 67 | 205 | 8.0 | 15.0 | 0.00 | 0.00 | 0.00 | 42 | 1011.0 |
| 20260505020047 | 67 | 221 | 7.0 | 15.0 | 0.00 | 0.00 | 0.00 | 41 | 1010.9 |
| 20260505014547 | 67 | 207 | 7.0 | 12.0 | 0.00 | 0.00 | 0.00 | 40 | 1010.9 |
| 20260505013101 | 68 | 195 | 5.0 | 12.0 | 0.00 | 0.00 | 0.00 | 40 | 1010.7 |
| 20260505011546 | 68 | 229 | 5.0 | 11.0 | 0.00 | 0.00 | 0.00 | 39 | 1010.7 |
| 20260505010048 | 68 | 221 | 7.0 | 16.0 | 0.00 | 0.00 | 0.00 | 39 | 1010.5 |
| 20260505004553 | 68 | 216 | 7.0 | 14.0 | 0.00 | 0.00 | 0.00 | 39 | 1010.5 |
| 20260505003044 | 69 | 173 | 5.0 | 12.0 | 0.00 | 0.00 | 0.00 | 38 | 1010.3 |
| 20260505001548 | 70 | 213 | 6.0 | 14.0 | 0.00 | 0.00 | 0.00 | 37 | 1010.1 |
| 20260505000100 | 70 | 192 | 5.0 | 14.0 | 0.00 | 0.00 | 0.00 | 37 | 1010.1 |
| 20260504234542 | 70 | 219 | 8.0 | 15.0 | 0.00 | 0.00 | 0.00 | 36 | 1009.9 |
| 20260504233042 | 71 | 224 | 5.0 | 16.0 | 0.00 | 0.00 | 0.00 | 35 | 1009.8 |
| 20260504231542 | 72 | 244 | 5.0 | 15.0 | 0.00 | 0.00 | 0.00 | 34 | 1009.9 |
| 20260504230100 | 72 | 200 | 8.0 | 16.0 | 0.00 | 0.00 | 0.00 | 33 | 1009.8 |
| 20260504224540 | 73 | 227 | 5.0 | 13.0 | 0.00 | 0.00 | 0.00 | 33 | 1009.8 |
| 20260504223040 | 73 | 214 | 5.0 | 12.0 | 0.00 | 0.00 | 0.00 | 33 | 1009.8 |
| 20260504221550 | 73 | 199 | 10.0 | 20.0 | 0.00 | 0.00 | 0.00 | 32 | 1009.7 |
| 20260504220040 | 73 | 226 | 7.0 | 19.0 | 0.00 | 0.00 | 0.00 | 32 | 1009.6 |
| 20260504214538 | 74 | 231 | 5.0 | 18.0 | 0.00 | 0.00 | 0.00 | 31 | 1009.6 |
| 20260504213043 | 74 | 246 | 9.0 | 19.0 | 0.00 | 0.00 | 0.00 | 28 | 1009.7 |
| 20260504211538 | 73 | 238 | 8.0 | 18.0 | 0.00 | 0.00 | 0.00 | 32 | 1009.9 |
| 20260504210034 | 73 | 273 | 11.0 | 16.0 | 0.00 | 0.00 | 0.00 | 29 | 1010.0 |
| 20260504204534 | 73 | 234 | 5.0 | 17.0 | 0.00 | 0.00 | 0.00 | 32 | 1010.2 |
| 20260504203030 | 73 | 223 | 9.0 | 14.0 | 0.00 | 0.00 | 0.00 | 33 | 1010.5 |
| 20260504201529 | 73 | 232 | 10.0 | 20.0 | 0.00 | 0.00 | 0.00 | 30 | 1010.6 |
| 20260504200027 | 73 | 259 | 13.0 | 21.0 | 0.00 | 0.00 | 0.00 | 31 | 1011.0 |
| 20260504194525 | 72 | 274 | 10.0 | 23.0 | 0.00 | 0.00 | 0.00 | 32 | 1011.3 |
| 20260504193022 | 71 | 268 | 11.0 | 23.0 | 0.00 | 0.00 | 0.00 | 33 | 1011.3 |
| 20260504191524 | 71 | 199 | 10.0 | 17.0 | 0.00 | 0.00 | 0.00 | 34 | 1011.8 |
| 20260504190023 | 71 | 230 | 9.0 | 22.0 | 0.00 | 0.00 | 0.00 | 33 | 1011.7 |
| 20260504184519 | 72 | 214 | 9.0 | 16.0 | 0.00 | 0.00 | 0.00 | 32 | 1011.8 |
| 20260504183016 | 71 | 316 | 12.0 | 22.0 | 0.00 | 0.00 | 0.00 | 34 | 1011.9 |
| 20260504181515 | 70 | 281 | 12.0 | 23.0 | 0.00 | 0.00 | 0.00 | 34 | 1012.1 |
| 20260504180012 | 70 | 279 | 7.0 | 18.0 | 0.00 | 0.00 | 0.00 | 36 | 1012.2 |
| 20260504174511 | 69 | 219 | 13.0 | 20.0 | 0.00 | 0.00 | 0.00 | 35 | 1012.4 |
| 20260504173010 | 68 | 248 | 10.0 | 20.0 | 0.00 | 0.00 | 0.00 | 36 | 1012.5 |
| 20260504171507 | 68 | 213 | 10.0 | 21.0 | 0.00 | 0.00 | 0.00 | 39 | 1012.7 |
| 20260504160105 | 64 | 266 | 8.0 | 20.0 | 0.00 | 0.00 | 0.00 | 40 | 1013.8 |
| 20260504110106 | 47 | 209 | 3.0 | 8.0 | 0.00 | 0.00 | 0.00 | 57 | 1015.9 |
| 20260504081556 | 45 | 242 | 3.0 | 6.0 | 0.00 | 0.00 | 0.00 | 62 | 1016.1 |